www.pogodaiklimat.ru

Погода и климат >> Архив погоды >> Россия >> Крым >> Евпатория


ПОГОДА в Евпатории

АРХИВ ПОГОДЫ в Евпатории

Время (UTC), дата Ветер
(напр.,м/с)
 
Видим.   Явления Облачность Т
(С)
Тd
(С)
f
(%)
Тe
(С)
Тes
(С)
Комфортность P
(гПа)
Po
(гПа)
Тmin
(С)
Tmax
(С)
R
(мм)
R24
(мм)
S
(см)
15 19.03 С 3 20 км ясно +15.1 -1.9 31 +15 +15 тепло 1022.5 1021.3
18 19.03 С 3 10 км ясно +11.2 +0.9 49 +10 +10 тепло 1023.9 1022.7 +15.1
21 19.03 С 2 10 км ясно +6.0 +1.7 74 +4 +4 тепло 1023.9 1022.7
00 20.03 С 2 10 км ясно +3.7 +1.4 85 +1 +1 по сезону 1024.0 1022.7
03 20.03 С 1 4000 м в посл. час туман ясно +2.5 +2.2 98 +1 +1 по сезону 1023.1 1021.8 +1.9
06 20.03 В 7-10
{10}
200 м туман ?/? +4.2 +4.2 100 -2 -2 по сезону 1024.4 1023.1 +1.9
09 20.03 В 7
{10}
20 км {туман} 10/10 300 м
[St]
+6.9 +4.6 85 +2 +2 по сезону 1025.2 1024.0
12 20.03 СВ 7-10
{11}
20 км {туман} 10/10 300 м
[Sc]
+7.7 +4.7 81 +3 +3 по сезону 1024.7 1023.5
15 20.03 СВ 6
{10}
20 км 9/9 300 м
[St]
+8.5 +4.4 75 +5 +5 тепло 1024.9 1023.7
18 20.03 С 3 10 км 1/0
[Ci fib]
+6.4 +4.1 85 +3 +3 по сезону 1026.2 1025.0 +9.1
21 20.03 С 4 10 км ясно +4.8 +3.6 92 0 0 по сезону 1028.0 1026.7
00 21.03 С 2 10 км ясно +4.0 +3.9 99 +1 +1 по сезону 1028.0 1026.7
03 21.03 С 5 10 км ясно +4.4 +3.7 95 -1 -1 по сезону 1027.4 1026.1 +2.5
06 21.03 С 6
{11}
20 км 8/0
[Ac trans]
+6.6 +3.3 79 +2 +3 по сезону 1028.8 1027.5 +2.5
09 21.03 С 6-11
{11}
20 км 3/3 600 м
[Cu med, cong]
+11.0 -0.5 45 +8 +12 тепло 1030.5 1029.3
12 21.03 С 5-10
{11}
20 км 1/1 600 м
[Cu hum]
+12.0 -4.8 31 +10 +14 тепло 1028.1 1026.9
15 21.03 СЗ 5
{11}
20 км 5/0
[Cc]
+11.2 -5.2 31 +9 +9 тепло 1027.7 1026.5
18 21.03 З 3 10 км 3/0
[Ci fib]
+7.1 -1.3 55 +5 +5 тепло 1028.6 1027.3 +12.9
21 21.03 З 3 10 км 10/0
[Ac As]
+7.2 +1.9 69 +5 +5 тепло 1029.3 1028.0
00 22.03 СЗ 4 10 км 10/10 600 м
[Sc]
+7.6 +1.9 67 +4 +4 тепло 1029.2 1028.0
03 22.03 С 3 10 км 10/10 600 м
[Sc]
+7.2 +2.5 72 +4 +4 тепло 1027.9 1026.7 +6.6
06 22.03 СВ 4 20 км 10/10 600 м
[Sc]
+6.3 +2.7 78 +3 +3 по сезону 1029.3 1028.0 +5.8
09 22.03 Ю 3 20 км 10/4 600 м
[Sc Ac trans]
+8.6 +3.4 70 +6 +6 тепло 1027.9 1026.7
12 22.03 З 4 20 км 6/0
[Cc]
+12.4 +1.7 48 +11 +13 тепло 1025.2 1024.0
15 22.03 З 4 20 км 10/0
[Ci fib]
+10.4 +3.2 61 +8 +8 тепло 1023.9 1022.7
18 22.03 З 4 10 км 10/0
[Ac trans Ci fib]
+8.9 +4.4 73 +6 +6 тепло 1022.3 1021.1 +13.0
21 22.03 З 4 10 км в посл. час ливневой дождь 10/10 600 м
[Cb cap]
+8.6 +6.7 88 +5 +5 тепло 1021.2 1020.0
00 23.03 СВ 5
{10}
10 км {ливн. осадки} 10/10 600 м
[Sc]
+8.7 +3.7 71 +5 +5 тепло 1020.2 1019.0
03 23.03 СЗ 2 10 км ясно +5.2 +2.2 81 +3 +3 по сезону 1018.9 1017.7 +5.0 0.3
06 23.03 С 4 20 км ясно +6.9 -1.3 56 +4 +6 по сезону 1019.4 1018.2 +4.5 0.3
09 23.03 С 6-11
{11}
20 км 1/1 600 м
[Cu hum]
+9.9 -6.4 31 +7 +11 тепло 1019.9 1018.7
12 23.03 С 9-15
{11}
20 км 10/10 600 м
[Cu Sc]
+8.3 -4.2 41 +4 +4 по сезону 1019.0 1017.8
15 23.03 С 7-12
{15}
20 км 10/10 600 м
[Cu Sc]
+8.8 -6.5 33 +5 +5 по сезону 1019.6 1018.4
18 23.03 СВ 7
{12}
10 км {ливн. осадки} 10/10 600 м
[Cb cap]
+5.4 +0.2 69 0 0 по сезону 1021.4 1020.2 +10.1 0.9
21 23.03 С 3
{12}
10 км 10/10 600 м
[Cb cap]
+5.9 -2.7 54 +3 +3 по сезону 1022.5 1021.3
00 24.03 С 3 10 км 10/10 600 м
[Cb cap]
+5.6 -2.0 58 +3 +3 по сезону 1022.5 1021.3
03 24.03 С 3 10 км 10/10 600 м
[Cb cap]
+4.9 -0.4 69 +2 +2 по сезону 1021.2 1019.9 +4.9 0.0
06 24.03 С 3 20 км 10/10 600 м
[Sc]
+5.0 0.0 70 +2 +2 по сезону 1021.7 1020.4 +4.5
09 24.03 С 2 50 км 10/10 600 м
[Cb cap]
+7.5 -2.8 48 +6 +6 по сезону 1021.4 1020.0
12 24.03 СЗ 2 50 км 10/8 600 м
[Cb cap Ac As]
+8.6 -3.4 43 +7 +8 по сезону 1020.4 1020.0
15 24.03 З 4 50 км 3/3 600 м
[Cu Sc Cc]
+8.8 -3.4 42 +6 +7 по сезону 1019.4 1018.7
18 24.03 З 3 10 км ясно +5.6 -1.4 61 +3 +3 по сезону 1019.9 1018.7 +9.7
21 24.03 З 3 10 км 10/10 600 м
[Sc]
+6.8 -0.1 61 +4 +4 по сезону 1019.2 1018.7
00 25.03 ЮЗ 5
{10}
10 км 10/8 600 м
[Sc Ac As]
+7.3 +2.0 69 +4 +4 тепло 1018.6 1017.4
03 25.03 ЮЗ 5 10 км 5/0
[Ac cast]
+6.9 +2.6 74 +3 +3 по сезону 1016.8 1015.6 +5.2
06 25.03 ЮЗ 4 20 км 3/3 600 м
[Cu hum]
+9.0 +3.5 68 +6 +8 тепло 1016.0 1014.8 +5.2
09 25.03 ЮЗ 4
{10}
20 км 1/1 600 м
[Cu hum]
+10.9 +3.9 62 +9 +16 тепло 1015.9 1014.7
12 25.03 ЮЗ 4
{10}
20 км 9/1 600 м
[Cu hum Ac trans]
+10.2 +4.4 67 +8 +10 тепло 1014.8 1013.6
15 25.03 ЮЗ 4-10
{10}
20 км 1/1 600 м
[Cu hum]
+8.6 +4.0 73 +6 +6 по сезону 1013.4 1012.2
18 25.03 ЮЗ 5
{11}
10 км ясно +7.6 +3.8 77 +4 +4 по сезону 1013.1 1011.9 +11.3
21 25.03 ЮЗ 5-10
{11}
10 км ясно +7.7 +4.6 81 +4 +4 по сезону 1013.2 1012.0
00 26.03 Ю 6-10
{11}
10 км 3/0
[Ac trans]
+7.6 +4.4 80 +3 +3 по сезону 1012.5 1011.3
03 26.03 Ю 6
{11}
10 км ясно +7.6 +3.8 77 +3 +3 по сезону 1012.8 1011.6 +7.6
06 26.03 ЮЗ 4
{11}
20 км 3/0
[Cc]
+9.3 +3.9 69 +7 +9 тепло 1014.5 1013.3 +7.0
09 26.03 З 5
{10}
20 км 2 балла +11.6 +4.6 62 +9 +14 тепло 1014.5 1013.3
12 26.03 З 5
{10}
20 км 3/1 600 м
[Cu hum Ac trans]
+11.6 +5.0 64 +9 +13 тепло 1014.2 1013.0

 

Местоположение метеостанции Евпатория (Крым, Россия): широта 45.18 долгота 33.37 высота над уровнем моря 10 м.

В архиве по умолчанию представлена погода в Евпатории за последнюю неделю. Архивные данные за месяц целиком и за предыдущие месяцы, начиная с января 2011 года, Вы можете получить, выбрав интересующий диапазон дат из раскрывающегося списка и нажав кнопку "Ввод!".


*Определитесь, кто Вы:
робот инопланетянин человек

Внимание! Время в таблицах - всемирное. Для получения местного времени необходимо прибавить поправку, которая равна 3 ч.

Смотрите также архив погоды в соседних городах и на ближайших метеорологических станциях:

Погода в Симферополе (Крым, Россия) (50 км)
Погода в Почтовом (Крым, Россия) (60 км)
Погода в Севастополе (город Севастополь, Россия) (64 км)
Погода в Симферополе город (Крым, Россия) (64 км)
Погода в Черноморском (Крым, Россия) (65 км)
Погода в Херсонесском Маяке (город Севастополь, Россия) (67 км)
Погода в Раздольном (Крым, Россия) (67 км)
Погода в Клепинино (Крым, Россия) (74 км)
Погода в Ишуни (Крым, Россия) (89 км)
Погода на Ангарском Перевале (Крым, Россия) (91 км)

Пояснения к столбцам:

Ветер - указаны скорость ветра в м/с - средняя за 10 мин, порывы в срок и между сроками (в фигурных скобках) и направление, откуда дует ветер: С - северный, СВ - северо-восточный, В - восточный, ЮВ - юго-восточный, Ю - южный, ЮЗ - юго-западный, З - западный, СЗ - северо-западный.
Видимость - горизонтальная дальность видимости в метрах или километрах. При видимости от 1 до 10 км при отсутствии осадков обычно наблюдается дымка, при ухудшении видимости до 1 км и менее - туман. В сухую погоду видимость может ухудшаться дымом, пылью или мглою.
Явления - указаны атмосферные явления, наблюдавшиеся в срок или в последний час перед сроком; фигурными скобками обозначены явления, наблюдавшиеся между сроками (за 1-3 часа до срока); квадратными скобками обозначены град или гололедные отложения с указанием их диаметра в мм.
Облачность - указаны через наклонную черту общая и нижняя облачность в баллах и высота нижней границы облаков в метрах; квадратными скобками обозначены формы облаков: Ci - перистые, Cs - перисто-слоистые, Cc - перисто-кучевые, Ac - высококучевые, As - высокослоистые, Sc - слоисто-кучевые, Ns - слоисто-дождевые, Cu - кучевые, Cb - кучево-дождевые. Подробнее классификацию облаков см. в Атласе облаков (PDF).
T - Температура воздуха - температура, измеренная на высоте 2 м над землей.
Td - Температура точки росы - температура, при понижении до которой содержащийся в воздухе водяной пар достигнет насыщения.
f - Относительная влажность воздуха - влажноcть воздуха, измеренная на высоте 2 м над землей.
Te - Эффективная температура - температура, которую ощущает одетый по сезону человек в тени. Характеристика душности погоды. При расчете учитывается влияние влажности воздуха и скорости ветра на теплоощущения человека.
Tes - Эффективная температура на солнце - температура, которую ощущает человек, с поправкой на солнечный нагрев. Характеристика знойности погоды. Зависит от высоты солнца над горизонтом, облачности и скорости ветра. Ночью, в пасмурную погоду, а также при ветре 12 м/с и более поправка равна нулю.
P - Атмосферное давление - приведенное к уровню моря атмосферное давление.
Po - Атмосферное давление - измеренное на уровне метеостанции атмосферное давление.
Tmin - Минимальная температура - минимум температуры воздуха на высоте 2 м над землей.
Tmax - Максимальная температура - максимум температуры воздуха на высоте 2 м над землей.
R - Количество осадков - Количество выпавших осадков за период времени, мм. При наведении курсора мыши на число - период времени, за который выпало указанное количество осадков.
R24 - Количество осадков - Количество выпавших осадков за 24 часа, мм.
S - Снежный покров - Высота снежного покрова, см. При наведении курсора мыши на число - состояние снежного покрова и степень покрытия местности в баллах.